Location: Bergnershof
(48.9468°N, 10.9431°E)
Time: 11:41:12
(UTC+00:00)

BREEZE-M DEB (TANK) - Pass Details

Date: 03 March 2021
Orbit: 308 x 15403 km, 49.5° (Epoch: 12 April)

Event Time Altitude Azimuth Distance (km) Brightness Sun altitude
Rises 19:46:51 0° 282° (WNW) 2,236 6.7 -27.2°
Reaches altitude 10° 19:48:11 10° 281° (W) 1,585 5.6 -27.4°
Enters shadow 19:50:22 55° 271° (W) 765 3.2 -27.7°
